Notices

What's New in latest Release from April 7th, 2021:

- Updated Glossary, including Speed of Maximum Gust, and Total Hourly Precipitation

- Updated national and regional climate services offices contacts and prices information

- Addition of station inventory lists for 1981-2010, 1971-2000, and 1961-1990 Normals.

If you haven't already, please take our survey and provide feedback about our website: https://eccc.sondage-survey.ca/f/LanguageSelection.aspx?s=442ca660-fcf1-47c0-95a9-59707d6fd709

Hourly Data Report for February 22, 2012

HALIFAX STANFIELD INT'L A
NOVA SCOTIA

44°52'48.060" N
63°30'00.050" W
145.40 m
8202250
71395
YHZ

Download Data

Hourly Data (February 2012)
Hourly Data Report for February 22, 2012
TIME
LST
Temp Definition
°C
Dew Point Definition
°C
Rel Hum Definition
%
Precip. Amount Definition
mm

Wind Dir Definition
10's deg

Wind Spd Definition
km/h
Visibility Definition
km
Stn Press Definition
kPa
Hmdx Definition


Wind Chill Definition


Weather Definition


00:00 -6.0 -10.0 73   18 7 24.1 99.94   -9 Mostly Cloudy
01:00 -4.6 -9.8 67   21 11 24.1 99.91   -9 Cloudy
02:00 -4.5 -8.7 72   20 15 24.1 99.85   -10 Mostly Cloudy
03:00 -3.6 -6.4 81   17 11 24.1 99.76   -8 Cloudy
04:00 -1.9 -4.1 85   20 17 24.1 99.65   -7 Cloudy
05:00 -2.7 -4.6 87   16 17 24.1 99.54   -8 Cloudy
06:00 -1.2 -2.8 89   17 19 16.1 99.44   -7 Snow Showers
07:00 -0.5 -1.2 95   17 24 3.2 99.36   -6 Snow Showers
08:00 -0.2 -0.8 96   16 20 2.4 99.27   -5 Snow Showers
09:00 0.2 -0.1 98   15 20 1.2 99.18     Snow
10:00 0.4 0.2 99   12 17 1.2 98.93     Rain,Snow,Fog
11:00 1.7 1.7 100   14 22 2.4 98.68     Rain,Fog
12:00 3.9 3.9 100   19 24 2.4 98.49     Rain,Fog
13:00 4.4 LegendMM LegendMM   22 30 1.6 LegendMM     Drizzle,Fog
14:00 4.9 4.9 100   25 13 24.1 98.44     Cloudy
15:00 6.3 4.7 89   26 13 24.1 98.42     Mostly Cloudy
16:00 5.1 3.6 90   28 9 24.1 98.43     Mostly Cloudy
17:00 4.8 3.9 94   21 11 24.1 98.42     Mostly Cloudy
18:00 2.8 2.4 97   18 7 24.1 98.36     Mostly Cloudy
19:00 2.6 2.3 98   16 11 24.1 98.39     Mostly Cloudy
20:00 2.6 2.4 99   16 9 19.3 98.40     Cloudy
21:00 2.4 2.1 98   17 13 2.4 98.44     Fog
22:00 1.3 1.1 99   18 17 0.4 98.43     Fog
23:00 1.4 1.2 99   21 7 2.4 98.45     Fog

Notes on Data Quality.

Legend

  • E = Estimated
  • M = Missing
  • NA = Not Available*
  • [empty] = Indicates an unobserved value
Date modified: